Miscellaneous Local Product
Issued by NWS North Platte, NE

Home | Current Version | Previous Version | Text Only | Print | Product List | Glossary On
Versions: 1 2 3 4 5 6 7 8 9 10 11 12 13 14 15 16 17 18 19 20 21 22 23 24 25 26 27 28 29 30 31 32 33 34 35 36 37 38 39 40 41 42 43 44 45 46 47 48 49 50
651
AXUS43 KLBF 191310
MISLBF


WESTERN AND NORTH CENTRAL NEBRASKA HOURLY WEATHER ROUNDUP
NATIONAL WEATHER SERVICE NORTH PLATTE NE
700 AM CST THU JAN 19 2017

NOTE: "FAIR" INDICATES FEW OR NO CLOUDS BELOW 12,000 FEET WITH NO
SIGNIFICANT WEATHER AND/OR OBSTRUCTIONS TO VISIBILITY.

NOTE: STATIONS NOT REPORTING VARIABLES SUCH AS SKY/WEATHER OR
PRESSURE ARE PROVIDED BY RAWS AND APRS NETWORKS AND ARE NOT UNDER
NATIONAL WEATHER SERVICE QUALITY CONTROL.

...OBSERVATIONS IN AND NEAR THE EASTERN PANHANDLE OF NEBRASKA...

CITY           SKY/WX    TMP DP  RH WIND       PRES   REMARKS
PINE RIDGE     CLOUDY    28  18  66 SW7       29.56S WCI  21
CHADRON        CLOUDY    18  14  84 W8        29.57F WCI   8
ALLIANCE       CLOUDY    14  10  84 CALM      29.58F
SIDNEY         CLOUDY    22  17  81 W3        29.60S
CRESCENT LAKE    N/A     21  19  93 CALM        N/A
$$

...OBSERVATIONS IN NORTHERN NEBRASKA AND FAR SOUTHERN SOUTH DAKOTA...

CITY           SKY/WX    TMP DP  RH WIND       PRES   REMARKS
WINNER         FAIR      35  28  75 S15       29.57F WCI  25
VALENTINE      CLOUDY    22  19  89 NE6       29.58S WCI  14
THEDFORD       FOG       30  29  99 S7        29.62F VSB 3/4 WCI  23
AINSWORTH      CLEAR     30  30 100 S9        29.60F FOG     WCI  22
O`NEILL        FOG       37  37  99 S13       29.66F VSB 3/4 WCI  29
ORD            FOG       37  35  92 SE7       29.67F VSB 1   WCI  32
BROKEN BOW     FOG       38  37  97 S9        29.65F VSB 1   WCI  31
VALENTINE NWR    N/A     26  24  91 S9          N/A  WCI  17
BUTTE            N/A     32  32 100 SE10        N/A  WCI  24
HALSEY           N/A     50  28  43 S3          N/A
SARGENT          N/A     37  28  70 CALM        N/A
CHAMBERS         N/A     37  36  98 CALM        N/A
EWING            N/A     36  35  96 S5          N/A  WCI  32
$$

...OBSERVATIONS IN SOUTHWEST NEBRASKA AND FAR NORTHEAST COLORADO...

CITY           SKY/WX    TMP DP  RH WIND       PRES   REMARKS
WRAY           FAIR      21  18  86 W6        29.61  WCI  14
HOLYOKE        FAIR      19  14  79 W6        29.61S WCI  11
IMPERIAL       CLOUDY    21  18  88 SE6       29.62F WCI  13
OGALLALA       CLOUDY    21  19  93 CALM      29.62R
NORTH PLATTE   FOG       32  32 100 CALM      29.65F VSB 1/4
MCCOOK         FOG       34  34 100 CALM      29.66S VSB 1/4
LEXINGTON      FOG       38  37  95 CALM      29.67S VSB 3/4
STAPLETON        N/A     31  31  99 CALM        N/A
GOTHENBURG       N/A     37  36  98 S3          N/A
CALLAWAY         N/A     35  34  96 S8          N/A  WCI  28
$$

...OBSERVATIONS IN CENTRAL LINCOLN COUNTY AREA...

CITY           SKY/WX    TMP DP  RH WIND       PRES   REMARKS
N.P. AIRPORT   FOG       32  32 100 CALM      29.65F VSB 1/4
N.P. DOWNTOWN    N/A     29  28  97 CALM        N/A
N.P. SOUTHEAST   N/A     29  28  95 CALM        N/A
N.P. HILLCREST   N/A     30  29  97 SE3         N/A
$$

...SOME OBSERVATIONS FROM AROUND THE REGION...

CITY           SKY/WX    TMP DP  RH WIND       PRES   REMARKS
LARAMIE        CLOUDY    12   7  80 SW15      29.69F WCI  -4
CHEYENNE       CLOUDY    36  13  38 NW9       29.60S WCI  29
DENVER         CLOUDY    24  15  68 S10       29.61S WCI  14
AKRON          CLOUDY    24  19  81 W12       29.60F WCI  13
SCOTTSBLUFF    CLOUDY    21  17  84 E5        29.60S WCI  15
RAPID CITY     CLOUDY    26  17  68 NW6       29.51F WCI  19
BISMARCK       CLOUDY    11   6  81 E5        29.54F WCI   3
PIERRE         PTCLDY     9   6  88 CALM      29.55S
SIOUX FALLS    CLEAR     36  33  89 S10       29.73F WCI  28
OMAHA          PTCLDY    33  29  85 CALM      29.79S FOG
GRAND ISLAND   CLOUDY    37  37 100 SE3       29.71F FOG
KANSAS CITY    FOG       43  40  89 SE9       29.81F VSB 1
WICHITA        DRIZZLE   45  44  97 S13       29.75F FOG
OKLAHOMA CITY  CLOUDY    47  46  97 S9        29.76F
DALLAS         FOG       48  48 100 S8        29.81F VSB 1/8
AMARILLO       CLEAR     37  31  78 SW15      29.61F WCI  28
DODGE CITY     CLOUDY    43  41  93 S13       29.64S
HAYS           CLOUDY    44  42  93 SE10      29.67F
GOODLAND       CLEAR     24  23  96 SE6       29.62S WCI  17
$$




USA.gov is the U.S. government's official web portal to all federal, state and local government web resources and services.